Location: Newark
(43.0000°N, 1.6781°W)
Time: 11:03:40
(UTC+00:00)

Explorer 7 - Pass Details

Date: 20 April 2021
Orbit: 484 x 677 km, 50.3° (Epoch: 07 May)

Event Time Altitude Azimuth Distance (km) Brightness Sun altitude
Rises 20:31:48 0° 249° (WSW) 2,627 10.8 -16.7°
Reaches altitude 10° 20:33:58 10° 253° (WSW) 1,769 9.9 -17.0°
Maximum altitude 20:37:57 62° 335° (NNW) 621 7.3 -17.6°
Drops below altitude 10° 20:42:13 10° 57° (ENE) 1,892 9.4 -18.2°
Enters shadow 20:42:36 - 57° (ENE) 2,043 9.5 -18.3°
Sets 20:44:36 0° 60° (ENE) 2,830 - -18.6°
